TimeEDT,TemperatureF,Dew PointF,Humidity,Sea Level PressureIn,VisibilityMPH,Wind Direction,Wind SpeedMPH,Gust SpeedMPH,PrecipitationIn,Events,Conditions,WindDirDegrees,DateUTC
12:16 AM,64.4,60.8,88,29.91,10.0,NE,4.6,-,N/A,,Overcast,50,2013-09-26 04:16:00
12:53 AM,64.0,61.0,90,29.89,10.0,ENE,5.8,-,N/A,,Overcast,60,2013-09-26 04:53:00
1:02 AM,64.4,60.8,88,29.90,10.0,NE,3.5,-,N/A,,Overcast,40,2013-09-26 05:02:00
1:25 AM,64.4,60.8,88,29.89,10.0,Calm,Calm,-,N/A,,Overcast,0,2013-09-26 05:25:00
1:49 AM,64.4,60.8,88,29.89,10.0,NE,3.5,-,N/A,,Overcast,50,2013-09-26 05:49:00
1:53 AM,64.0,61.0,90,29.88,10.0,Calm,Calm,-,N/A,,Overcast,0,2013-09-26 05:53:00
2:53 AM,64.0,61.0,90,29.88,10.0,ENE,3.5,-,N/A,,Overcast,60,2013-09-26 06:53:00
3:10 AM,64.4,60.8,88,29.90,10.0,ENE,4.6,-,N/A,,Overcast,60,2013-09-26 07:10:00
3:53 AM,63.0,60.1,90,29.88,10.0,NE,4.6,-,N/A,,Overcast,40,2013-09-26 07:53:00
4:53 AM,63.0,60.1,90,29.88,10.0,NE,3.5,-,N/A,,Overcast,50,2013-09-26 08:53:00
5:18 AM,62.6,60.8,94,29.90,10.0,NE,4.6,-,N/A,,Overcast,40,2013-09-26 09:18:00
5:49 AM,62.6,60.8,94,29.91,9.0,Calm,Calm,-,N/A,,Mostly Cloudy,0,2013-09-26 09:49:00
5:53 AM,62.1,60.1,93,29.89,9.0,Calm,Calm,-,N/A,,Mostly Cloudy,0,2013-09-26 09:53:00
6:08 AM,60.8,59.0,94,29.91,7.0,Calm,Calm,-,N/A,,Partly Cloudy,0,2013-09-26 10:08:00
6:23 AM,60.8,60.8,100,29.92,5.0,Calm,Calm,-,N/A,,Mostly Cloudy,0,2013-09-26 10:23:00
6:53 AM,61.0,59.0,93,29.91,6.0,Calm,Calm,-,N/A,,Overcast,0,2013-09-26 10:53:00
7:29 AM,62.6,60.8,94,29.94,7.0,Calm,Calm,-,N/A,,Overcast,0,2013-09-26 11:29:00
7:53 AM,62.1,60.1,93,29.93,5.0,Calm,Calm,-,N/A,,Overcast,0,2013-09-26 11:53:00
8:53 AM,64.9,60.1,84,29.96,8.0,ENE,4.6,-,N/A,,Mostly Cloudy,60,2013-09-26 12:53:00
9:53 AM,66.0,60.1,81,29.97,9.0,ENE,5.8,-,N/A,,Overcast,70,2013-09-26 13:53:00
10:06 AM,66.2,60.8,83,29.99,10.0,ENE,5.8,-,N/A,,Overcast,60,2013-09-26 14:06:00
10:53 AM,69.1,61.0,75,29.98,10.0,Variable,3.5,-,N/A,,Mostly Cloudy,0,2013-09-26 14:53:00
11:53 AM,71.1,61.0,70,29.98,10.0,Variable,4.6,-,N/A,,Overcast,0,2013-09-26 15:53:00
12:53 PM,73.9,61.0,64,29.96,10.0,ENE,6.9,-,N/A,,Mostly Cloudy,70,2013-09-26 16:53:00
1:53 PM,73.9,61.0,64,29.95,10.0,NNE,4.6,-,N/A,,Mostly Cloudy,30,2013-09-26 17:53:00
2:00 PM,73.4,60.8,65,29.97,10.0,NE,5.8,-,N/A,,Overcast,40,2013-09-26 18:00:00
2:53 PM,75.0,61.0,62,29.94,10.0,North,6.9,-,N/A,,Mostly Cloudy,10,2013-09-26 18:53:00
3:53 PM,77.0,62.1,60,29.94,10.0,Calm,Calm,-,N/A,,Mostly Cloudy,0,2013-09-26 19:53:00
4:53 PM,79.0,62.1,56,29.93,10.0,North,3.5,-,N/A,,Mostly Cloudy,350,2013-09-26 20:53:00
5:53 PM,79.0,61.0,54,29.93,10.0,Calm,Calm,-,N/A,,Scattered Clouds,0,2013-09-26 21:53:00
6:53 PM,77.0,62.1,60,29.94,10.0,SSE,4.6,-,N/A,,Clear,150,2013-09-26 22:53:00
7:53 PM,73.0,63.0,71,29.95,10.0,ESE,3.5,-,N/A,,Partly Cloudy,120,2013-09-26 23:53:00
8:53 PM,71.1,62.1,73,29.97,10.0,Calm,Calm,-,N/A,,Scattered Clouds,0,2013-09-27 00:53:00
9:53 PM,66.9,64.0,90,29.99,10.0,Calm,Calm,-,N/A,,Mostly Cloudy,0,2013-09-27 01:53:00
10:53 PM,68.0,64.0,87,30.01,10.0,Calm,Calm,-,N/A,,Overcast,0,2013-09-27 02:53:00
11:53 PM,66.9,64.9,93,30.01,10.0,Calm,Calm,-,N/A,,Overcast,0,2013-09-27 03:53:00